Portada
METAR-TAF:

METAR-TAF

Aeropuertos :

Tarvisio, Italia

latitud: 46-30N, longitud: 013-35E, altitud: 777 m

Observación

El informe se hizo hace 1 hora y 21 minutos, a las 05:55 UTC
Viento calma
Temperatura 12°C
Humedad 88%
Presión 1007 hPa
Visibilidad 10 km o más
Cielo nuboso a una altura de 3500 ft

METAR: LIVO 070555Z 00000KT 9999 BKN035 12/10 Q1007 RMK BKN VIS MIN 9999

Hora: 09:16 (07:16 UTC)


TAF: falta

Observaciones y pronósticos meteorológicos de más de 4000 aeropuertos (mensajes METAR y TAF).

Los puntos amarillos y rojos representan las estaciones disponibles.

Ponga el ratón en el punto deseado para ver el nombre de la estación.

Haga clic para ver las observaciones y los pronósticos meteorológicos.

Para cambiar el mapa : haga clic en los botones verdes con una cruz de color negro para hacer un zoom, en el botón verde con un guión para alejar o en las flechas verdes para mapas adyacentes.


METAR-TAF: